Location: Keppel Henge
(44.7900°N, 80.9447°W)
Time: 10:30:57
(UTC-04:00)

ISS - Pass Details

Date: 11 October 2017
Orbit: 401 x 408 km, 51.6° (Epoch: 19 October)

Event Time Altitude Azimuth Distance (km) Brightness Sun altitude
Rises 20:24:38 0° 299° (WNW) 2,327 1.3 -18.4°
Reaches altitude 10° 20:26:43 10° 297° (WNW) 1,465 0.1 -18.7°
Maximum altitude 20:30:00 74° 212° (SSW) 426 -3.8 -19.3°
Enters shadow 20:30:15 68° 171° (S) 439 -3.9 -19.3°
